Location: Hermaringen
(48.5952°N, 10.2585°E)
Time: 02:14:41
(UTC+00:00)

Cosmos 1092 Rocket - Pass Details

Date: 18 November 2025
Orbit: 953 x 994 km, 82.9° (Epoch: 04 December)

Event Time Altitude Azimuth Distance (km) Brightness Sun altitude
Rises 18:08:00 0° 350° (N) 3,694 7.1 -24.9°
Reaches altitude 10° 18:10:32 10° 352° (N) 2,736 6.4 -25.3°
Maximum altitude 18:16:49 86° 80° (E) 978 3.8 -26.3°
Drops below altitude 10° 18:23:00 10° 171° (S) 2,690 6.2 -27.3°
Sets 18:25:28 0° 172° (S) 3,627 6.9 -27.8°
